TimeCST,TemperatureF,Dew PointF,Humidity,Sea Level PressureIn,VisibilityMPH,Wind Direction,Wind SpeedMPH,Gust SpeedMPH,PrecipitationIn,Events,Conditions,WindDirDegrees,DateUTC
12:14 AM,-2.2,-5.8,85,30.35,10.0,Calm,Calm,-,N/A,,Clear,0,2013-02-21 06:14:00
12:34 AM,-0.4,-5.8,78,30.35,10.0,Calm,Calm,-,N/A,,Clear,0,2013-02-21 06:34:00
12:53 AM,-2.2,-5.8,85,30.35,10.0,Calm,Calm,-,N/A,,Clear,0,2013-02-21 06:53:00
1:14 AM,-2.2,-7.6,78,30.35,10.0,Calm,Calm,-,N/A,,Clear,0,2013-02-21 07:14:00
1:34 AM,-2.2,-7.6,78,30.36,10.0,Calm,Calm,-,N/A,,Clear,0,2013-02-21 07:34:00
1:53 AM,-2.2,-7.6,78,30.37,10.0,Calm,Calm,-,N/A,,Clear,0,2013-02-21 07:53:00
2:14 AM,-0.4,-5.8,78,30.37,10.0,Calm,Calm,-,N/A,,Clear,0,2013-02-21 08:14:00
2:34 AM,-2.2,-7.6,78,30.37,10.0,Calm,Calm,-,N/A,,Clear,0,2013-02-21 08:34:00
2:53 AM,-2.2,-7.6,78,30.36,10.0,NE,3.5,-,N/A,,Clear,50,2013-02-21 08:53:00
3:14 AM,-4.0,-7.6,85,30.35,10.0,ENE,6.9,-,N/A,,Clear,60,2013-02-21 09:14:00
3:33 AM,-2.2,-7.6,78,30.35,10.0,ENE,5.8,-,N/A,,Clear,60,2013-02-21 09:33:00
3:54 AM,-2.2,-7.6,78,30.33,10.0,ENE,8.1,-,N/A,,Clear,60,2013-02-21 09:54:00
4:14 AM,-2.2,-7.6,78,30.31,10.0,ENE,10.4,-,N/A,,Scattered Clouds,60,2013-02-21 10:14:00
4:33 AM,-2.2,-7.6,78,30.31,10.0,ENE,6.9,-,N/A,,Clear,70,2013-02-21 10:33:00
4:54 AM,-2.2,-7.6,78,30.30,10.0,ENE,5.8,-,N/A,,Clear,70,2013-02-21 10:54:00
5:14 AM,-2.2,-7.6,78,30.28,10.0,ENE,6.9,-,N/A,,Clear,70,2013-02-21 11:14:00
5:54 AM,-2.2,-7.6,78,30.29,10.0,ENE,5.8,-,N/A,,Clear,70,2013-02-21 11:54:00
6:14 AM,-2.2,-7.6,78,30.34,10.0,South,3.5,-,N/A,,Clear,170,2013-02-21 12:14:00
6:33 AM,-5.8,-9.4,84,30.36,10.0,SSW,5.8,-,N/A,,Clear,210,2013-02-21 12:33:00
6:54 AM,-2.2,-7.6,78,30.37,10.0,SW,4.6,-,N/A,,Mostly Cloudy,230,2013-02-21 12:54:00
7:14 AM,-2.2,-7.6,78,30.35,10.0,Calm,Calm,-,N/A,,Scattered Clouds,0,2013-02-21 13:14:00
7:33 AM,-5.8,-11.2,77,30.33,10.0,North,3.5,-,N/A,,Scattered Clouds,350,2013-02-21 13:33:00
7:54 AM,-4.0,-9.4,78,30.33,10.0,NE,5.8,-,N/A,,Clear,40,2013-02-21 13:54:00
8:14 AM,-2.2,-7.6,78,30.32,10.0,NNE,6.9,-,N/A,,Clear,30,2013-02-21 14:14:00
8:33 AM,-0.4,-5.8,78,30.32,10.0,NNE,4.6,-,N/A,,Scattered Clouds,30,2013-02-21 14:33:00
8:54 AM,1.4,-4.0,78,30.31,10.0,NE,3.5,-,N/A,,Clear,40,2013-02-21 14:54:00
9:14 AM,3.2,-2.2,78,30.31,10.0,East,8.1,-,N/A,,Clear,80,2013-02-21 15:14:00
9:33 AM,5.0,-0.4,78,30.31,10.0,East,3.5,-,N/A,,Scattered Clouds,100,2013-02-21 15:33:00
9:54 AM,6.8,1.4,79,30.33,10.0,SE,6.9,-,N/A,,Scattered Clouds,140,2013-02-21 15:54:00
10:14 AM,8.6,1.4,73,30.32,10.0,SSE,4.6,-,N/A,,Clear,150,2013-02-21 16:14:00
10:33 AM,8.6,3.2,79,30.33,10.0,SSE,6.9,-,N/A,,Clear,160,2013-02-21 16:33:00
10:54 AM,8.6,3.2,79,30.33,10.0,SE,5.8,-,N/A,,Clear,140,2013-02-21 16:54:00
11:14 AM,10.4,3.2,73,30.32,10.0,SE,5.8,-,N/A,,Clear,130,2013-02-21 17:14:00
11:33 AM,10.4,3.2,73,30.31,10.0,East,5.8,-,N/A,,Clear,90,2013-02-21 17:33:00
11:54 AM,12.2,5.0,73,30.30,10.0,ESE,6.9,-,N/A,,Clear,110,2013-02-21 17:54:00
12:14 PM,12.2,6.8,79,30.30,10.0,East,5.8,-,N/A,,Clear,100,2013-02-21 18:14:00
12:33 PM,14.0,6.8,73,30.28,10.0,East,4.6,-,N/A,,Clear,100,2013-02-21 18:33:00
12:54 PM,14.0,6.8,73,30.28,10.0,ESE,4.6,-,N/A,,Scattered Clouds,110,2013-02-21 18:54:00
1:14 PM,15.8,6.8,68,30.27,10.0,ENE,4.6,-,N/A,,Scattered Clouds,70,2013-02-21 19:14:00
1:33 PM,15.8,8.6,73,30.26,10.0,ENE,5.8,-,N/A,,Clear,60,2013-02-21 19:33:00
1:54 PM,15.8,8.6,73,30.24,10.0,ENE,8.1,-,N/A,,Clear,70,2013-02-21 19:54:00
2:14 PM,15.8,8.6,73,30.23,10.0,ENE,11.5,-,N/A,,Clear,70,2013-02-21 20:14:00
2:33 PM,15.8,8.6,73,30.22,10.0,ENE,11.5,-,N/A,,Clear,70,2013-02-21 20:33:00
2:54 PM,15.8,10.4,79,30.21,10.0,ENE,11.5,-,N/A,,Clear,60,2013-02-21 20:54:00
3:14 PM,17.6,10.4,73,30.21,10.0,ENE,11.5,-,N/A,,Clear,60,2013-02-21 21:14:00
3:33 PM,17.6,10.4,73,30.21,10.0,ENE,9.2,-,N/A,,Clear,70,2013-02-21 21:33:00
3:54 PM,17.6,10.4,73,30.21,10.0,ENE,10.4,-,N/A,,Clear,70,2013-02-21 21:54:00
4:14 PM,17.6,10.4,73,30.21,10.0,ENE,10.4,-,N/A,,Clear,70,2013-02-21 22:14:00
4:33 PM,17.6,10.4,73,30.21,10.0,East,12.7,-,N/A,,Clear,80,2013-02-21 22:33:00
4:54 PM,17.6,10.4,73,30.20,10.0,East,8.1,-,N/A,,Clear,80,2013-02-21 22:54:00
5:14 PM,17.6,10.4,73,30.19,10.0,ENE,8.1,-,N/A,,Clear,70,2013-02-21 23:14:00
5:33 PM,17.6,10.4,73,30.19,10.0,NE,6.9,-,N/A,,Clear,50,2013-02-21 23:33:00
5:54 PM,17.6,10.4,73,30.19,10.0,NE,6.9,-,N/A,,Scattered Clouds,50,2013-02-21 23:54:00
6:14 PM,17.6,10.4,73,30.19,10.0,NE,5.8,-,N/A,,Clear,50,2013-02-22 00:14:00
6:33 PM,17.6,10.4,73,30.19,10.0,NE,5.8,-,N/A,,Clear,50,2013-02-22 00:33:00
6:54 PM,15.8,10.4,79,30.17,10.0,NNE,5.8,-,N/A,,Clear,30,2013-02-22 00:54:00
7:14 PM,15.8,10.4,79,30.17,10.0,NE,5.8,-,N/A,,Clear,40,2013-02-22 01:14:00
7:33 PM,17.6,10.4,73,30.16,10.0,NE,8.1,-,N/A,,Clear,40,2013-02-22 01:33:00
7:54 PM,17.6,10.4,73,30.15,10.0,NE,8.1,-,N/A,,Clear,50,2013-02-22 01:54:00
8:14 PM,17.6,10.4,73,30.14,10.0,NE,11.5,-,N/A,,Scattered Clouds,50,2013-02-22 02:14:00
8:33 PM,17.6,10.4,73,30.14,10.0,ENE,12.7,-,N/A,,Scattered Clouds,60,2013-02-22 02:33:00
8:54 PM,17.6,8.6,68,30.14,10.0,ENE,10.4,-,N/A,,Clear,70,2013-02-22 02:54:00
9:14 PM,17.6,8.6,68,30.13,10.0,North,-9999.0,-,N/A,,Clear,0,2013-02-22 03:14:00
9:33 PM,17.6,10.4,73,30.13,10.0,Calm,Calm,-,N/A,,Clear,60,2013-02-22 03:33:00
9:54 PM,17.6,10.4,73,30.13,10.0,ENE,3.5,-,N/A,,Clear,70,2013-02-22 03:54:00
10:14 PM,17.6,10.4,73,30.12,10.0,Calm,Calm,-,N/A,,Clear,0,2013-02-22 04:14:00
10:33 PM,17.6,10.4,73,30.12,10.0,Calm,Calm,-,N/A,,Clear,0,2013-02-22 04:33:00
10:54 PM,17.6,10.4,73,30.11,10.0,North,3.5,-,N/A,,Clear,360,2013-02-22 04:54:00
11:14 PM,17.6,10.4,73,30.10,10.0,North,4.6,-,N/A,,Scattered Clouds,10,2013-02-22 05:14:00
11:33 PM,17.6,10.4,73,30.09,10.0,North,4.6,-,N/A,,Scattered Clouds,360,2013-02-22 05:33:00
11:53 PM,17.6,10.4,73,30.08,10.0,North,-9999.0,-,N/A,,Scattered Clouds,0,2013-02-22 05:53:00